Location: G�rlitz
(51.1670°N, 15.0000°E)
Time: 16:06:22
(UTC+01:00)

ARIANE 6 FM1 Upper Stage - Pass Details

Date: 17 February 2026
Orbit: 523 x 607 km, 62.0° (Epoch: 6 March)

Event Time Altitude Azimuth Distance (km) Brightness Sun altitude
Rises 20:17:06 0° 297° (WNW) 2,659 7.3 -28.2°
Reaches altitude 10° 20:20:43 10° 263° (W) 1,768 6.0 -28.8°
Maximum altitude 20:21:57 11° 245° (WSW) 1,689 5.6 -29.0°
Drops below altitude 10° 20:23:11 10° 226° (SW) 1,769 5.5 -29.1°
Enters shadow 20:23:30 - 222° (SW) 1,814 5.5 -29.2°
